Dubuque, IA

9:19 AM CST on November 17, 2019 (GMT -0600)
Dubuque Regional

Weather History for KDBQ - September, 2019

Change the Weather History Date:

Thursday, September 19, 2019

  Actual Average Record
Temperature  
Mean Temperature 70 °F 61 °F  
Max Temperature 73 °F 71 °F 94 °F (1948)
Min Temperature 66 °F 50 °F 37 °F (1992)
Degree Days  
Heating Degree Days 0 6  
Month to date heating degree days 24 66  
Since 1 July heating degree days 33 93  
Cooling Degree Days 5 2  
Month to date cooling degree days 66 51  
Year to date cooling degree days 639 627  
Growing Degree Days 20 (Base 50)    
Moisture  
Dew Point 66 °F    
Average Humidity 93    
Maximum Humidity 100    
Minimum Humidity 76    
Precipitation  
Precipitation 2.24 in 0.12 in 2.34 in (1965)
Month to date precipitation 10.58 2.24  
Year to date precipitation 41.71 28.22  
Snow  
Snow 0.00 in 0.00 in - ()
Month to date snowfall 0.0 0.0  
Since 1 July snowfall 0.0 0.0  
Since 1 September snowfall 0.0 0.0  
Snow Depth 0.00 in    
Sea Level Pressure  
Sea Level Pressure 30.06 in    
Wind  
Wind Speed 8 mph ()    
Max Wind Speed 28 mph    
Max Gust Speed 40 mph    
Visibility 6.8 miles    
Events Fog , Rain , Thunderstorm    
T = Trace of Precipitation, MM = Missing Value Source: Averaged Metar Reports

Daily Weather History Graph

Daily Weather History Graph

Search for Another Location

Airport or City:

Astronomy

Sep. 19, 2019 Rise Set
Actual Time 6:46 AM CDT 7:05 PM CDT
Civil Twilight 6:18 AM CDT 7:33 PM CDT
Nautical Twilight 5:45 AM CDT 8:06 PM CDT
Astronomical Twilight 5:11 AM CDT 8:40 PM CDT
Moon 10:08 PM CDT (9/19) 11:56 AM CDT (9/19)
Length of Visible Light 13h 15m
Length of Day
12h 19m
Waning Gibbous, 74% of the Moon is Illuminated
Sep 19
Waning Gibbous
Sep 21
Last Quarter
Sep 28
New
Oct 5
First Quarter
Oct 13
Full

Hourly Weather History & Observations

Time (CDT) Temp. Dew Point Humidity Pressure Visibility Wind Dir Wind Speed Gust Speed Precip Events Conditions
12:53 AM 71.1 °F 66.9 °F 87% 30.01 in 10.0 mi SSE 11.5 mph - N/A   Partly Cloudy
1:53 AM 70.0 °F 66.0 °F 87% 30.02 in 10.0 mi SSE 10.4 mph - N/A   Partly Cloudy
2:53 AM 69.1 °F 66.0 °F 90% 30.00 in 10.0 mi South 10.4 mph - N/A   Partly Cloudy
3:47 AM 69.8 °F 64.4 °F 83% 30.02 in 10.0 mi SW 8.1 mph - N/A Thunderstorm Thunderstorm
3:53 AM 69.1 °F 64.9 °F 87% 30.00 in 10.0 mi SW 6.9 mph - N/A Thunderstorm Thunderstorm
4:09 AM 69.1 °F 66.0 °F 90% 30.02 in 10.0 mi South 9.2 mph - 0.00 in Thunderstorm Scattered Clouds
4:53 AM 69.1 °F 64.9 °F 87% 30.01 in 10.0 mi West 3.5 mph - 0.00 in   Scattered Clouds
5:00 AM 69.1 °F 66.0 °F 90% 30.03 in 10.0 mi Calm Calm - N/A Thunderstorm Mostly Cloudy
5:19 AM 68.0 °F 66.0 °F 93% 30.03 in 10.0 mi ENE 6.9 mph - N/A Thunderstorm Thunderstorm
5:53 AM 66.9 °F 66.0 °F 97% 30.01 in 3.0 mi South 16.1 mph 23.0 mph 0.08 in Rain , Thunderstorm Heavy Thunderstorms and Rain
6:11 AM 69.1 °F 63.0 °F 81% 30.04 in 0.8 mi WNW 13.8 mph 31.1 mph N/A Rain , Thunderstorm Heavy Thunderstorms and Rain
6:19 AM 69.1 °F 63.0 °F 81% 30.04 in 1.0 mi ENE 23.0 mph 28.8 mph N/A Rain , Thunderstorm Heavy Thunderstorms and Rain
6:24 AM 69.1 °F 62.1 °F 78% 30.03 in 2.0 mi ENE 17.3 mph 40.3 mph N/A Rain , Thunderstorm Light Thunderstorms and Rain
6:27 AM 70.0 °F 62.1 °F 76% 30.03 in 4.0 mi ENE 11.5 mph 40.3 mph N/A Rain , Thunderstorm Light Thunderstorms and Rain
6:53 AM 66.9 °F 63.0 °F 87% 30.03 in 10.0 mi SSE 10.4 mph - N/A Thunderstorm Thunderstorm
7:05 AM 68.0 °F 64.9 °F 90% 30.04 in 10.0 mi SE 9.2 mph - N/A Thunderstorm Overcast
7:21 AM 68.0 °F 66.0 °F 93% 30.05 in 10.0 mi SE 8.1 mph - N/A   Overcast
7:53 AM 66.9 °F 64.9 °F 93% 30.09 in 10.0 mi North - - N/A   Overcast
8:06 AM 69.1 °F 64.9 °F 87% 30.11 in 10.0 mi NNW 11.5 mph 29.9 mph N/A Thunderstorm Overcast
8:14 AM 68.0 °F 66.0 °F 93% 30.12 in 4.0 mi North 16.1 mph 20.7 mph 0.00 in Rain , Thunderstorm Light Thunderstorms and Rain
8:18 AM 66.9 °F 66.0 °F 97% 30.10 in 1.8 mi North 15.0 mph - 0.02 in Rain , Thunderstorm Heavy Thunderstorms and Rain
8:23 AM 66.0 °F 66.0 °F 100% 30.11 in 0.8 mi North 12.7 mph 23.0 mph 0.13 in Rain , Thunderstorm Heavy Thunderstorms and Rain
8:28 AM 66.0 °F 66.0 °F 100% 30.11 in 0.5 mi North 10.4 mph 23.0 mph 0.33 in Fog , Rain , Thunderstorm Heavy Thunderstorms and Rain
8:41 AM 66.0 °F 66.0 °F 100% 30.13 in 3.0 mi Variable 4.6 mph - 0.72 in Rain , Thunderstorm Heavy Thunderstorms and Rain
8:44 AM 66.0 °F 66.0 °F 100% 30.13 in 2.0 mi Calm Calm - 0.73 in Rain , Thunderstorm Thunderstorms and Rain
8:48 AM 66.2 °F 66.2 °F 100% 30.11 in 1.5 mi NNE 4.6 mph - 0.76 in Rain , Thunderstorm Heavy Thunderstorms and Rain
8:53 AM 66.0 °F 66.0 °F 100% 30.09 in 1.5 mi NNE 8.1 mph - 0.84 in Rain , Thunderstorm Heavy Thunderstorms and Rain
8:56 AM 66.0 °F 66.0 °F 100% 30.11 in 2.0 mi NNE 5.8 mph - 0.04 in Rain , Thunderstorm Heavy Thunderstorms and Rain
9:05 AM 66.0 °F 66.0 °F 100% 30.12 in 3.0 mi ENE 4.6 mph - 0.11 in Rain , Thunderstorm Heavy Rain
9:14 AM 66.0 °F 66.0 °F 100% 30.11 in 4.0 mi NNE 12.7 mph - 0.17 in Rain , Thunderstorm Heavy Thunderstorms and Rain
9:24 AM 66.0 °F 66.0 °F 100% 30.13 in 2.0 mi North 6.9 mph - 0.21 in Rain , Thunderstorm Heavy Thunderstorms and Rain
9:28 AM 66.0 °F 66.0 °F 100% 30.13 in 3.0 mi North 5.8 mph - 0.23 in Rain , Thunderstorm Thunderstorms and Rain
9:53 AM 66.0 °F 66.0 °F 100% 30.11 in 5.0 mi NNE 11.5 mph - N/A Rain , Thunderstorm Thunderstorms and Rain
10:07 AM 66.0 °F 66.0 °F 100% 30.13 in 5.0 mi NE 8.1 mph - N/A Rain , Thunderstorm Light Rain
10:20 AM 66.0 °F 66.0 °F 100% 30.12 in 4.0 mi NE 10.4 mph - 0.09 in Rain Light Rain
10:53 AM 66.0 °F 66.0 °F 100% 30.09 in 7.0 mi ENE 9.2 mph - 0.13 in Rain Light Rain
11:53 AM 68.0 °F 66.0 °F 93% 30.09 in 10.0 mi NE 3.5 mph - 0.09 in   Overcast
12:53 PM 68.0 °F 66.9 °F 96% 30.07 in 10.0 mi SE 9.2 mph - 0.03 in   Mostly Cloudy
1:53 PM 68.0 °F 66.9 °F 96% 30.03 in 10.0 mi ESE 10.4 mph 19.6 mph 0.02 in   Overcast
2:53 PM 71.1 °F 68.0 °F 90% 30.02 in 10.0 mi SE 10.4 mph - N/A   Partly Cloudy
3:53 PM 73.0 °F 68.0 °F 84% 30.01 in 10.0 mi South 6.9 mph - N/A   Clear
4:53 PM 73.9 °F 68.0 °F 82% 30.03 in 10.0 mi SSW 4.6 mph - N/A   Mostly Cloudy
5:53 PM 73.0 °F 68.0 °F 84% 30.04 in 10.0 mi South 5.8 mph - N/A   Clear
6:53 PM 71.1 °F 66.9 °F 87% 30.04 in 10.0 mi SE 3.5 mph - N/A   Scattered Clouds
7:53 PM 66.9 °F 66.9 °F 100% 30.05 in 10.0 mi Calm Calm - N/A   Scattered Clouds
8:53 PM 66.9 °F 66.0 °F 97% 30.06 in 10.0 mi ESE 4.6 mph - N/A   Clear
9:53 PM 68.0 °F 66.0 °F 93% 30.06 in 10.0 mi East 4.6 mph - N/A   Clear
10:53 PM 68.0 °F 66.9 °F 96% 30.05 in 10.0 mi East 6.9 mph - N/A   Clear
11:53 PM 66.9 °F 66.0 °F 97% 30.06 in 10.0 mi ESE 6.9 mph - N/A   Clear